TimeEDT,TemperatureF,Dew PointF,Humidity,Sea Level PressureIn,VisibilityMPH,Wind Direction,Wind SpeedMPH,Gust SpeedMPH,PrecipitationIn,Events,Conditions,WindDirDegrees,DateUTC
12:53 AM,66.0,51.1,59,29.67,10.0,North,10.4,-,N/A,,Clear,360,2012-10-28 04:53:00
2:53 AM,64.0,50.0,60,29.65,10.0,North,10.4,-,N/A,,Clear,350,2012-10-28 06:53:00
3:53 AM,64.0,50.0,60,29.64,10.0,North,6.9,21.9,N/A,,Clear,360,2012-10-28 07:53:00
4:53 AM,64.0,48.9,58,29.64,10.0,North,9.2,-,N/A,,Clear,360,2012-10-28 08:53:00
5:53 AM,63.0,48.9,60,29.64,10.0,NNW,8.1,-,N/A,,Clear,340,2012-10-28 09:53:00
6:53 AM,62.1,51.1,67,29.65,10.0,North,6.9,-,N/A,,Clear,350,2012-10-28 10:53:00
7:53 AM,61.0,51.1,70,29.65,10.0,North,8.1,-,N/A,,Clear,350,2012-10-28 11:53:00
8:53 AM,62.1,50.0,65,29.67,10.0,NNW,9.2,-,N/A,,Clear,340,2012-10-28 12:53:00
9:53 AM,63.0,50.0,63,29.67,10.0,North,11.5,-,N/A,,Clear,350,2012-10-28 13:53:00
10:53 AM,66.0,48.9,54,29.67,10.0,North,11.5,17.3,N/A,,Clear,10,2012-10-28 14:53:00
11:53 AM,70.0,50.0,49,29.65,10.0,North,8.1,18.4,N/A,,Clear,360,2012-10-28 15:53:00
1:53 PM,73.0,48.0,41,29.61,10.0,NNE,9.2,17.3,N/A,,Clear,20,2012-10-28 17:53:00
2:53 PM,73.9,48.0,40,29.60,10.0,NNW,9.2,17.3,N/A,,Clear,340,2012-10-28 18:53:00
3:53 PM,75.0,48.0,38,29.59,10.0,North,10.4,16.1,N/A,,Clear,10,2012-10-28 19:53:00
4:53 PM,75.0,48.0,38,29.59,10.0,WNW,13.8,18.4,N/A,,Mostly Cloudy,300,2012-10-28 20:53:00
5:53 PM,73.0,48.0,41,29.59,10.0,NW,8.1,-,N/A,,Scattered Clouds,320,2012-10-28 21:53:00
6:53 PM,70.0,48.9,47,29.60,10.0,WNW,3.5,-,N/A,,Overcast,300,2012-10-28 22:53:00
7:53 PM,69.1,48.9,49,29.61,10.0,Calm,Calm,-,N/A,,Overcast,0,2012-10-28 23:53:00
8:53 PM,66.0,50.0,56,29.62,10.0,NW,11.5,-,N/A,,Mostly Cloudy,320,2012-10-29 00:53:00
9:53 PM,64.0,48.9,58,29.64,10.0,NW,10.4,-,N/A,,Partly Cloudy,320,2012-10-29 01:53:00
10:53 PM,61.0,46.9,60,29.67,10.0,NW,9.2,17.3,N/A,,Mostly Cloudy,320,2012-10-29 02:53:00
11:53 PM,59.0,46.0,62,29.68,10.0,NW,9.2,16.1,N/A,,Overcast,320,2012-10-29 03:53:00